Location: Cheyres
(46.8153°N, 6.7877°E)
Time: 15:25:01
(UTC+00:00)

Cosmos 990 Rocket - Pass Details

Date: 28 September 2021
Orbit: 746 x 769 km, 74.0° (Epoch: 18 October)

Event Time Altitude Azimuth Distance (km) Brightness Sun altitude
Rises 04:10:18 0° 344° (NNW) 3,241 7.2 -14.0°
Reaches altitude 10° 04:12:57 10° 355° (N) 2,314 6.6 -13.5°
Maximum altitude 04:17:36 31° 57° (ENE) 1,333 6.0 -12.8°
Drops below altitude 10° 04:22:13 10° 119° (ESE) 2,309 7.3 -12.0°
Sets 04:24:51 0° 130° (SE) 3,232 7.9 -11.5°
